| time (UTC) | temp F | wind direction | speed knots | gust knots | rain 1hr in | rain 24hr in | rain mn in | humidity % | barometer mb |
| 20260503225950 | 61 | 248 | 2.6 | 6.1 | 0.00 | 0.00 | 0.00 | 2 | 1012.1 |
| 20260503224450 | 62 | 249 | 1.7 | 7.8 | 0.00 | 0.00 | 0.00 | 2 | 1011.9 |
| 20260503222950 | 63 | 85 | 0.0 | 4.3 | 0.00 | 0.00 | 0.00 | 2 | 1011.9 |
| 20260503221448 | 62 | 252 | 1.7 | 9.6 | 0.00 | 0.00 | 0.00 | 2 | 1011.9 |
| 20260503220209 | 63 | 247 | 0.0 | 2.6 | 0.00 | 0.00 | 0.00 | 2 | 1012.0 |
| 20260503215948 | 63 | 247 | 0.0 | 2.6 | 0.00 | 0.00 | 0.00 | 2 | 1012.0 |
| 20260503214449 | 63 | 294 | 3.5 | 9.6 | 0.00 | 0.00 | 0.00 | 2 | 1011.9 |
| 20260503212949 | 61 | 258 | 1.7 | 7.8 | 0.00 | 0.00 | 0.00 | 2 | 1011.9 |
| 20260503211448 | 63 | 353 | 2.6 | 7.8 | 0.00 | 0.00 | 0.00 | 2 | 1011.7 |
| 20260503205950 | 60 | 221 | 3.5 | 6.1 | 0.00 | 0.00 | 0.00 | 2 | 1011.9 |
| 20260503204451 | 60 | 249 | 4.3 | 7.0 | 0.00 | 0.00 | 0.00 | 2 | 1011.7 |
| 20260503202948 | 63 | 315 | 0.9 | 7.0 | 0.00 | 0.00 | 0.00 | 2 | 1011.9 |
| 20260503201448 | 62 | 275 | 3.5 | 9.6 | 0.00 | 0.00 | 0.00 | 2 | 1011.9 |
| 20260503195948 | 63 | 227 | 2.6 | 5.2 | 0.00 | 0.00 | 0.00 | 2 | 1011.9 |
| 20260503194448 | 62 | 202 | 1.7 | 9.6 | 0.00 | 0.00 | 0.00 | 2 | 1012.1 |
| 20260503191449 | 60 | 204 | 0.9 | 3.5 | 0.00 | 0.00 | 0.00 | 3 | 1012.2 |
| 20260503185948 | 60 | 225 | 0.0 | 2.6 | 0.00 | 0.00 | 0.00 | 3 | 1012.4 |
| 20260503184448 | 57 | 285 | 1.7 | 6.1 | 0.00 | 0.00 | 0.00 | 3 | 1012.8 |
| 20260503182948 | 58 | 285 | 4.3 | 11.3 | 0.00 | 0.00 | 0.00 | 3 | 1012.9 |
| 20260503181449 | 55 | 300 | 0.9 | 7.8 | 0.00 | 0.00 | 0.00 | 3 | 1013.0 |
| 20260503175948 | 57 | 277 | 0.9 | 8.7 | 0.00 | 0.00 | 0.00 | 3 | 1013.0 |
| 20260503174448 | 56 | 0 | 0.0 | 0.0 | 0.00 | 0.00 | 0.00 | 3 | 1013.2 |
| 20260503172950 | 57 | 339 | 0.9 | 6.1 | 0.00 | 0.00 | 0.00 | 3 | 1013.1 |
| 20260503171449 | 55 | 6 | 3.5 | 9.6 | 0.00 | 0.00 | 0.00 | 3 | 1013.2 |
| 20260503090320 | 45 | 0 | 0.0 | 0.0 | 0.00 | 0.00 | 0.00 | 5 | 1011.3 |
| 20260503081450 | 46 | 0 | 0.0 | 1.7 | 0.00 | 0.00 | 0.00 | 5 | 1011.3 |
| 20260503080327 | 47 | 0 | 0.0 | 0.0 | 0.00 | 0.00 | 0.00 | 5 | 1011.3 |
| 20260503071450 | 47 | 270 | 0.0 | 1.7 | 0.00 | 0.00 | 0.00 | 4 | 1011.2 |
| 20260503070230 | 48 | 0 | 0.0 | 0.0 | 0.00 | 0.00 | 0.00 | 4 | 1011.2 |
| 20260503054449 | 50 | 0 | 0.0 | 0.0 | 0.00 | 0.00 | 0.00 | 4 | 1011.4 |
| 20260503052948 | 50 | 0 | 0.0 | 0.0 | 0.00 | 0.00 | 0.00 | 4 | 1011.5 |
| 20260503051448 | 50 | 0 | 0.0 | 0.0 | 0.00 | 0.00 | 0.00 | 4 | 1011.8 |
| 20260503044448 | 51 | 0 | 0.0 | 0.0 | 0.00 | 0.00 | 0.00 | 4 | 1012.1 |
| 20260503035948 | 51 | 0 | 0.0 | 0.0 | 0.00 | 0.00 | 0.00 | 4 | 1012.1 |
| 20260503034449 | 52 | 0 | 0.0 | 0.0 | 0.00 | 0.00 | 0.00 | 4 | 1012.0 |
| 20260503031448 | 52 | 0 | 0.0 | 0.0 | 0.00 | 0.00 | 0.00 | 4 | 1011.9 |
| 20260503025949 | 53 | 0 | 0.0 | 0.0 | 0.00 | 0.00 | 0.00 | 4 | 1011.9 |
| 20260503024448 | 53 | 0 | 0.0 | 0.0 | 0.00 | 0.00 | 0.00 | 4 | 1011.9 |
| 20260503023451 | 52 | 0 | 0.0 | 0.0 | 0.00 | 0.00 | 0.00 | 4 | 1011.9 |
| 20260503022948 | 52 | 0 | 0.0 | 0.0 | 0.00 | 0.00 | 0.00 | 4 | 1011.9 |
| 20260503021448 | 53 | 0 | 0.0 | 0.0 | 0.00 | 0.00 | 0.00 | 4 | 1011.8 |
| 20260503015948 | 54 | 0 | 0.0 | 0.0 | 0.00 | 0.00 | 0.00 | 4 | 1011.9 |
| 20260503014448 | 54 | 0 | 0.0 | 0.0 | 0.00 | 0.00 | 0.00 | 4 | 1012.0 |
| 20260503012950 | 54 | 0 | 0.0 | 0.0 | 0.00 | 0.00 | 0.00 | 4 | 1011.8 |
| 20260503011448 | 54 | 0 | 0.0 | 0.0 | 0.00 | 0.00 | 0.00 | 4 | 1011.7 |
| 20260503005948 | 54 | 0 | 0.0 | 0.0 | 0.00 | 0.00 | 0.00 | 4 | 1011.5 |
| 20260503004448 | 54 | 0 | 0.0 | 0.0 | 0.00 | 0.00 | 0.00 | 4 | 1011.3 |
| 20260503001450 | 56 | 0 | 0.0 | 0.0 | 0.00 | 0.00 | 0.00 | 3 | 1011.1 |
| 20260502235948 | 57 | 0 | 0.0 | 0.0 | 0.00 | 0.00 | 0.00 | 3 | 1011.1 |
| 20260502234448 | 58 | 0 | 0.0 | 0.0 | 0.00 | 0.00 | 0.00 | 4 | 1011.1 |
| 20260502232949 | 59 | 0 | 0.0 | 0.0 | 0.00 | 0.00 | 0.00 | 3 | 1011.1 |
| 20260502231448 | 60 | 0 | 0.0 | 0.0 | 0.00 | 0.00 | 0.00 | 3 | 1011.1 |